Weather History for Ramona, CA

Change the Weather History Date:

Thursday, May 16, 2013

  Actual Average Record
Temperature  
Mean Temperature 65 °F 62 °F  
Max Temperature 76 °F 75 °F 97 °F (2008)
Min Temperature 54 °F 48 °F 35 °F (2011)
Degree Days  
Heating Degree Days 0 4  
Month to date heating degree days 43 83  
Since 1 July heating degree days 2318 2475  
Cooling Degree Days 0 1  
Month to date cooling degree days 33 4  
Year to date cooling degree days 34 9  
Growing Degree Days 14 (Base 50)    
Moisture  
Dew Point 51 °F    
Average Humidity 66    
Maximum Humidity 93    
Minimum Humidity 38    
Precipitation  
Precipitation 0.00 in 0.01 in 0.04 in (2000)
Month to date precipitation 0.47 0.27  
Year to date precipitation 4.50 11.18  
Since 1 July precipitation 8.14 15.89  
Snow  
Snow 0.00 in - - ()
Month to date snowfall 0.0  
Year to date snowfall 0.0  
Since 1 July snowfall 0.0  
Snow Depth 0.00 in    
Sea Level Pressure  
Sea Level Pressure 29.94 in    
Wind  
Wind Speed 5 mph (West)    
Max Wind Speed 16 mph    
Max Gust Speed 21 mph    
Visibility 8 miles    
Events      
T = Trace of Precipitation, MM = Missing Value Source: NWS Daily Summary

Daily Weather History Graph

Daily Weather History Graph

Search for Another Location

Airport:

Trip Planner

Search our weather history database for the weather conditions in past years. The results will help you decide how hot, cold, wet, or windy it might be!

Date:

Astronomy

May. 16, 2013 Rise Set
Actual Time 5:47 AM PDT 7:41 PM PDT
Civil Twilight 5:19 AM PDT 8:08 PM PDT
Nautical Twilight 4:46 AM PDT 8:41 PM PDT
Astronomical Twilight 4:11 AM PDT 9:17 PM PDT
Moon 11:19 AM PDT (5/16) 12:09 AM PDT (5/16)
Length of Visible Light 14h 48m
Length of Day
13h 53m
Waxing Crescent, 36% of the Moon is Illuminated
May 16
Waxing Crescent
May 17
First Quarter
May 24
Full
May 31
Last Quarter
Jun 8
New

Hourly Weather History & Observations

Time (PDT) Temp. Dew Point Humidity Pressure Visibility Wind Dir Wind Speed Gust Speed Precip Events Conditions
12:53 AM 54.0 °F 52.0 °F 93% 29.96 in 5.0 mi Calm Calm - N/A   Overcast
1:53 AM 54.0 °F 52.0 °F 93% 29.95 in 5.0 mi Calm Calm - N/A   Overcast
2:53 AM 55.0 °F 52.0 °F 89% 29.94 in 5.0 mi SSE 3.5 mph - N/A   Overcast
3:53 AM 55.0 °F 52.0 °F 89% 29.94 in 6.0 mi SSE 3.5 mph - N/A   Overcast
4:53 AM 55.0 °F 51.1 °F 86% 29.93 in 8.0 mi Calm Calm - N/A   Overcast
5:53 AM 55.0 °F 51.1 °F 86% 29.94 in 8.0 mi ESE 3.5 mph - N/A   Overcast
6:17 AM 55.4 °F 51.8 °F 88% 29.97 in 7.0 mi SE 3.5 mph - N/A   Overcast
6:53 AM 55.9 °F 51.1 °F 84% 29.95 in 7.0 mi Calm Calm - N/A   Overcast
7:53 AM 55.9 °F 51.1 °F 84% 29.96 in 7.0 mi Calm Calm - 0.00 in   Overcast
8:53 AM 61.0 °F 51.1 °F 70% 29.97 in 8.0 mi WNW 4.6 mph - N/A   Mostly Cloudy
9:17 AM 62.6 °F 51.8 °F 68% 29.99 in 9.0 mi Variable 6.9 mph - N/A   Scattered Clouds
9:53 AM 64.0 °F 51.1 °F 63% 29.96 in 10.0 mi Calm Calm - N/A   Clear
10:53 AM 70.0 °F 51.1 °F 51% 29.95 in 10.0 mi West 6.9 mph - N/A   Clear
11:00 AM - - N/A% - - North - - N/A   Unknown
11:53 AM 72.0 °F 52.0 °F 49% 29.94 in 10.0 mi NW 8.1 mph - N/A   Clear
12:53 PM 75.9 °F 48.9 °F 38% 29.92 in 10.0 mi WSW 9.2 mph 17.3 mph N/A   Clear
1:53 PM 73.9 °F 52.0 °F 46% 29.91 in 10.0 mi West 12.7 mph 20.7 mph N/A   Clear
2:53 PM 73.0 °F 52.0 °F 48% 29.90 in 10.0 mi West 12.7 mph 19.6 mph N/A   Clear
3:53 PM 70.0 °F 52.0 °F 53% 29.89 in 10.0 mi WNW 11.5 mph 18.4 mph N/A   Clear
4:53 PM 69.1 °F 51.1 °F 53% 29.88 in 10.0 mi West 11.5 mph 17.3 mph N/A   Clear
5:53 PM 68.0 °F 51.1 °F 55% 29.89 in 10.0 mi West 10.4 mph - N/A   Clear
6:53 PM 61.0 °F 51.1 °F 70% 29.91 in 10.0 mi WNW 11.5 mph - N/A   Clear
7:53 PM 55.9 °F 50.0 °F 80% 29.92 in 9.0 mi West 5.8 mph - N/A   Clear
8:53 PM 55.0 °F 50.0 °F 83% 29.93 in 9.0 mi WNW 4.6 mph - N/A   Scattered Clouds
9:08 PM 53.6 °F 50.0 °F 88% 29.95 in 9.0 mi NW 5.8 mph - N/A   Mostly Cloudy
9:53 PM 55.9 °F 51.1 °F 84% 29.94 in 9.0 mi Calm Calm - N/A   Overcast
10:05 PM 55.4 °F 50.0 °F 82% 29.96 in 9.0 mi Calm Calm - N/A   Overcast
10:53 PM 57.0 °F 51.1 °F 81% 29.93 in 8.0 mi Calm Calm - N/A   Overcast
11:53 PM 57.0 °F 51.1 °F 81% 29.92 in 9.0 mi Calm Calm - N/A   Overcast